Weather History for Hartford, CT

Change the Weather History Date:

Friday, January 17, 2014

  Actual Average Record
Temperature  
Mean Temperature 35 °F -  
Max Temperature 43 °F 34 °F 59 °F (1990)
Min Temperature 27 °F 14 °F -6 °F (1971)
Degree Days  
Heating Degree Days 30    
Moisture  
Dew Point 27 °F    
Average Humidity 82    
Maximum Humidity 100    
Minimum Humidity 42    
Precipitation  
Precipitation 0.00 in - - ()
Sea Level Pressure  
Sea Level Pressure 29.95 in    
Wind  
Wind Speed 2 mph (South)    
Max Wind Speed 13 mph    
Max Gust Speed 21 mph    
Visibility 5 miles    
Events Fog    
Averages and records for this station are not official NWS values.
T = Trace of Precipitation, MM = Missing Value Source: NWS Daily Summary

Daily Weather History Graph

Daily Weather History Graph

Search for Another Location

Airport:

Trip Planner

Search our weather history database for the weather conditions in past years. The results will help you decide how hot, cold, wet, or windy it might be!

Date:

Astronomy

Jan. 17, 2014 Rise Set
Actual Time 7:14 AM EST 4:47 PM EST
Civil Twilight 6:43 AM EST 5:17 PM EST
Nautical Twilight 6:09 AM EST 5:52 PM EST
Astronomical Twilight 5:36 AM EST 6:25 PM EST
Moon 6:33 PM EST (1/17) 7:38 AM EST (1/17)
Length of Visible Light 10h 34m
Length of Day
9h 33m
Full, 98% of the Moon is Illuminated
Jan 17
Full
Jan 24
Last Quarter
Jan 30
New
Feb 6
First Quarter
Feb 14
Full

Hourly Weather History & Observations

Time (EST) Temp. Windchill Dew Point Humidity Pressure Visibility Wind Dir Wind Speed Gust Speed Precip Events Conditions
12:32 AM 37.0 °F 34.5 °F 33.1 °F 86% 29.93 in 8.0 mi SSW 3.5 mph - N/A   Overcast
12:53 AM 37.0 °F - 33.1 °F 86% 29.93 in 8.0 mi Calm Calm - N/A   Overcast
1:53 AM 33.1 °F - 30.0 °F 89% 29.93 in 6.0 mi Calm Calm - N/A   Clear
2:53 AM 30.0 °F 26.5 °F 28.0 °F 92% 29.93 in 3.0 mi SE 3.5 mph - N/A   Clear
3:20 AM 30.9 °F - 28.0 °F 89% 29.93 in 2.5 mi Calm Calm - N/A   Clear
3:43 AM 30.0 °F - 28.0 °F 92% 29.93 in 0.8 mi Calm Calm - N/A   Mist
3:53 AM 28.9 °F - 28.0 °F 96% 29.94 in 1.5 mi Calm Calm - N/A   Clear
3:59 AM 30.0 °F - 28.0 °F 92% 29.94 in 3.0 mi Calm Calm - N/A   Clear
4:08 AM 30.0 °F - 28.0 °F 92% 29.94 in 2.5 mi Calm Calm - N/A   Clear
4:26 AM 28.9 °F - 26.1 °F 89% 29.93 in 1.0 mi Calm Calm - N/A   Clear
4:35 AM 28.9 °F - 27.0 °F 92% 29.94 in 0.5 mi Calm Calm - N/A Fog Light Freezing Fog
4:40 AM 28.0 °F - 27.0 °F 96% 29.93 in 0.2 mi Calm Calm - N/A Fog Light Freezing Fog
4:53 AM 28.0 °F - 26.1 °F 92% 29.94 in 0.2 mi Calm Calm - N/A Fog Light Freezing Fog
5:40 AM 28.9 °F - 27.0 °F 92% 29.95 in 2.0 mi Calm Calm - N/A   Partly Cloudy
5:53 AM 28.0 °F 24.2 °F 27.0 °F 96% 29.96 in 1.8 mi South 3.5 mph - N/A   Partly Cloudy
6:01 AM 28.0 °F 24.2 °F 26.1 °F 92% 29.96 in 2.5 mi South 3.5 mph - N/A   Partly Cloudy
6:11 AM 28.0 °F 24.2 °F 26.1 °F 92% 29.96 in 3.0 mi South 3.5 mph - N/A   Clear
6:29 AM 28.0 °F - 25.0 °F 88% 29.97 in 1.8 mi Calm Calm - N/A   Clear
6:40 AM 28.0 °F - 25.0 °F 88% 29.97 in 0.2 mi Calm Calm - N/A Fog Light Freezing Fog
6:53 AM 28.0 °F 24.2 °F 26.1 °F 92% 29.97 in 1.5 mi SE 3.5 mph - N/A   Clear
6:58 AM 28.9 °F 25.2 °F 27.0 °F 92% 29.97 in 3.0 mi SE 3.5 mph - N/A   Clear
7:11 AM 27.0 °F - 27.0 °F 100% 29.97 in 1.8 mi Calm Calm - N/A   Clear
8:53 AM 32.0 °F 27.5 °F 28.9 °F 88% 29.99 in 4.0 mi South 4.6 mph - N/A   Clear
9:53 AM 36.0 °F 33.3 °F 30.0 °F 79% 29.99 in 6.0 mi South 3.5 mph - N/A   Haze
10:53 AM 39.0 °F 32.8 °F 27.0 °F 62% 29.99 in 8.0 mi SSW 9.2 mph - N/A   Clear
11:53 AM 42.1 °F 37.1 °F 24.1 °F 49% 29.96 in 10.0 mi SW 8.1 mph - N/A   Clear
12:53 PM 43.0 °F 36.4 °F 24.1 °F 47% 29.93 in 10.0 mi South 12.7 mph - N/A   Clear
1:53 PM 43.0 °F 36.4 °F 21.0 °F 42% 29.93 in 10.0 mi South 12.7 mph 19.6 mph N/A   Clear
2:53 PM 43.0 °F 36.8 °F 23.0 °F 45% 29.93 in 10.0 mi SSW 11.5 mph 20.7 mph N/A   Clear
3:53 PM 42.1 °F 35.7 °F 26.1 °F 53% 29.94 in 10.0 mi South 11.5 mph - N/A   Clear
4:53 PM 39.9 °F 36.7 °F 27.0 °F 60% 29.94 in 10.0 mi South 4.6 mph - N/A   Clear
5:53 PM 35.1 °F - 27.0 °F 72% 29.94 in 10.0 mi Calm Calm - N/A   Clear
6:53 PM 35.1 °F - 27.0 °F 72% 29.94 in 10.0 mi Calm Calm - N/A   Clear
7:53 PM 34.0 °F 31.0 °F 28.0 °F 79% 29.94 in 10.0 mi SSE 3.5 mph - N/A   Clear
8:53 PM 34.0 °F - 28.0 °F 79% 29.95 in 10.0 mi Calm Calm - N/A   Clear
9:53 PM 34.0 °F - 28.9 °F 82% 29.94 in 9.0 mi Calm Calm - N/A   Clear
10:53 PM 33.1 °F - 28.9 °F 85% 29.93 in 9.0 mi Calm Calm - N/A   Clear
11:53 PM 33.1 °F - 30.0 °F 89% 29.91 in 8.0 mi Calm Calm - N/A   Overcast